RH
67 59 60 55 57 56 54 48 45 45 44 47 50 50 46 43 39 35 32 32 32 35 63 78 73 71 69 69 68 69 68 72 72 73 78 82 82 83 85 88 92 94 100
65 62 59 58 57 56 52 48 46 48 50 52 52 49 42 37 35 33 33 32 31 42 63 74 65 65 63 64 65 65 62 67 64 71 82 84 82 81 81 80 84 88 90
64 64 60 60 58 53 51 50 52 54 55 54 49 41 38 39 37 34 36 39 42 67 74 65 60 63 61 61 62 61 60 61 62 87 85 84 81 76 78 79 81 79 82
66 64 63 58 54 53 54 56 58 58 53 46 42 38 40 38 35 36 33 34 38 70 63 65 63 62 61 66 62 59 61 60 61 68 74 69 76 73 72 74 76 77 76
67 64 57 54 55 55 55 53 50 47 48 48 47 44 43 39 38 36 34 33 39 56 52 36 36 36 42 51 52 52 54 54 61 63 67 65 65 65 68 71 71 73 74
61 56 54 56 57 56 54 49 41 42 46 52 50 46 42 42 43 40 37 34 34 33 33 31 31 34 39 49 48 47 46 48 56 56 55 52 52 61 66 65 65 65 75
62 55 58 58 56 55 48 45 49 50 52 51 50 50 48 46 43 44 39 37 35 34 34 33 34 37 36 39 43 44 43 43 49 50 48 49 49 52 55 58 59 61 61
58 58 57 55 49 43 48 51 51 53 54 52 53 62 69 56 47 47 41 40 37 36 34 35 35 33 32 32 34 38 44 46 44 46 48 48 48 49 50 52 54 57 56
54 52 49 42 46 52 55 54 55 55 55 55 57 53 72 77 66 46 48 41 40 38 35 38 38 37 36 34 32 36 38 37 44 53 52 52 52 50 50 50 50 51 53
52 46 44 49 53 53 46 44 46 49 57 62 59 57 57 59 74 80 47 49 44 45 42 43 42 41 40 37 37 41 39 36 40 50 51 52 52 50 50 50 49 49 50
50 45 48 52 45 39 37 37 40 46 54 63 64 63 62 62 64 67 77 56 52 51 52 49 46 46 42 40 41 40 36 40 50 59 56 52 52 52 52 52 50 49 48
50 46 40 37 35 35 36 38 41 46 59 63 63 64 69 71 71 69 78 73 73 68 56 55 54 50 43 42 44 44 42 58 47 58 59 58 56 55 53 52 52 51 51
38 35 34 40 37 37 36 39 43 47 50 65 75 75 74 74 75 76 72 92 97 77 68 62 59 48 45 47 46 48 46 44 45 54 62 62 61 57 55 54 55 54 54
34 36 38 38 38 38 40 42 45 46 57 64 62 63 67 69 73 77 82 93 95 88 77 71 59 51 50 47 47 47 53 54 52 64 65 62 59 58 58 56 56 56 56
37 40 39 38 42 44 42 43 47 53 56 53 54 54 63 79 93 98 99 100 99 99 92 67 53 51 52 52 52 57 59 51 64 65 63 65 65 65 64 64 65 64 63
39 39 42 44 45 44 43 42 47 56 52 53 56 64 70 78 82 86 93 91 80 77 86 59 56 55 55 53 55 59 52 62 54 57 63 72 74 70 70 69 66 65 65
43 50 54 45 44 45 43 44 52 51 54 58 60 70 75 72 70 82 68 54 52 54 62 56 52 54 52 50 49 54 57 59 66 67 77 74 75 69 66 68 69 64 70
55 48 43 44 46 45 45 45 50 55 58 58 63 71 70 65 63 53 51 51 52 49 56 65 62 61 56 54 59 64 68 65 68 69 74 78 69 68 71 67 67 59 59
48 42 44 48 47 46 45 48 53 56 58 61 67 66 61 60 62 52 52 48 50 53 56 64 72 68 63 63 66 73 75 77 67 72 62 62 60 65 79 78 72 73 84
44 42 44 47 47 46 46 53 54 58 61 64 63 59 56 49 47 47 48 51 54 59 66 70 75 79 79 71 78 85 91 79 73 65 57 61 74 66 68 58 62 59 83
43 44 47 48 48 48 46 50 54 60 62 60 56 53 49 51 52 52 52 55 63 66 70 68 82 85 82 80 90 86 83 76 74 73 65 66 78 68 62 64 63 59 61
50 45 45 51 46 46 50 51 58 60 60 57 52 46 53 55 56 56 56 59 60 62 66 74 85 85 84 80 76 74 79 88 85 76 79 82 81 76 72 67 60 66 82
53 50 41 48 51 49 52 54 58 61 61 59 52 53 58 61 61 60 59 60 61 63 44 48 74 82 83 74 90 94 95 98 96 90 96 95 78 80 66 65 59 73 81
57 50 54 52 53 54 55 58 63 64 66 60 58 58 64 66 65 63 63 64 64 69 32 54 81 78 80 93 95 99 97 98 99 88 87 94 85 85 73 75 54 72 73
60 60 56 56 57 56 60 65 67 69 68 65 66 69 68 70 68 65 66 69 76 53 49 60 75 70 74 78 88 95 92 100 90 89 82 92 80 87 89 73 56 64 63
58 57 58 58 55 61 60 62 67 72 88 70 69 68 69 73 72 68 73 79 73 49 61 66 70 71 62 65 66 74 86 100 98 88 76 91 91 98 95 68 66 63 64
Wind_Speed
17 16 19 15 14 12 10 8 7 8 8 8 9 10 12 9 11 13 12 12 12 10 2 4 6 6 7 9 11 13 14 14 15 17 17 17 19 20 21 21 21 21 22
15 13 15 14 11 7 6 5 6 6 7 5 7 10 11 12 14 14 14 13 9 10 1 7 6 5 5 6 9 11 12 11 14 15 16 17 17 19 21 22 22 22 22
13 13 11 9 8 7 5 6 6 5 4 7 10 11 11 13 12 15 12 11 6 4 7 7 6 4 5 5 5 7 9 9 11 10 12 16 17 18 21 22 21 21 21
12 12 10 9 8 7 6 6 5 6 9 11 10 8 9 8 9 8 12 15 14 8 8 9 10 7 7 6 7 8 8 9 9 10 10 14 15 18 22 23 22 20 22
14 11 10 10 8 7 6 5 6 8 8 8 4 3 3 6 6 10 13 15 16 14 11 10 11 11 10 7 8 8 8 11 11 11 13 14 17 18 19 23 22 21 20
15 12 11 9 5 4 3 5 6 6 7 4 5 6 8 5 6 12 11 10 10 8 7 8 10 10 8 8 9 9 12 13 11 10 12 15 16 17 19 21 23 22 22
14 10 10 9 4 1 3 2 3 6 3 5 3 11 4 3 2 14 9 7 7 6 8 9 11 12 11 10 11 12 13 14 13 14 15 15 15 16 20 22 23 24 23
14 12 9 5 1 2 2 4 6 5 1 5 3 2 2 4 2 20 4 12 7 5 11 8 6 6 8 9 10 11 12 12 13 15 16 15 15 16 19 22 24 24 25
12 10 7 4 2 2 2 2 3 5 7 5 1 0 1 3 5 4 14 1 10 12 11 5 5 8 10 13 16 14 12 12 11 10 10 13 15 18 21 23 25 26 27
12 10 9 9 9 6 3 2 3 5 7 10 6 5 6 6 2 4 5 15 8 9 7 6 10 13 15 18 17 14 17 19 15 12 11 14 17 20 22 24 26 29 29
14 12 14 14 10 5 1 2 5 8 8 5 5 6 8 7 9 5 5 5 10 7 10 11 14 15 18 17 17 20 21 20 10 10 14 15 18 21 24 26 28 29 31
17 15 12 7 5 1 5 7 7 7 7 8 9 9 8 6 7 8 4 6 8 12 8 11 14 16 18 16 17 18 22 10 9 11 14 17 20 24 27 29 30 31 33
17 14 9 2 3 5 8 9 10 8 8 7 7 8 9 12 13 14 13 5 6 8 6 8 13 15 13 15 15 10 14 17 20 19 18 20 24 27 29 30 30 30 31
16 8 2 3 2 5 7 9 9 10 6 5 8 11 13 15 16 15 12 8 5 3 4 5 15 7 8 16 16 19 19 19 23 23 23 24 25 26 27 28 28 28 28
9 8 5 3 9 8 7 8 10 9 7 9 11 13 12 10 7 6 8 8 3 2 2 4 3 13 19 19 21 22 24 29 25 23 23 21 21 21 22 23 23 23 25
5 5 7 15 12 6 7 9 11 8 10 11 12 10 8 6 6 3 4 6 4 3 3 4 14 20 23 25 26 25 26 22 21 21 21 21 21 21 22 22 24 24 24
4 10 15 16 10 8 7 10 9 10 10 8 9 8 7 5 6 6 6 5 4 4 6 13 20 23 27 28 25 23 23 21 21 20 19 21 22 23 23 20 19 20 22
12 17 16 13 11 8 9 12 12 11 10 10 9 7 8 7 9 8 8 7 6 8 8 13 19 24 27 23 24 24 22 22 22 24 20 20 22 23 22 21 21 21 21
16 12 11 11 10 11 12 13 12 12 11 10 8 8 9 11 12 10 8 9 8 8 12 14 18 25 25 24 26 25 23 23 25 23 27 24 24 23 21 20 22 22 21
4 6 10 11 13 12 12 12 14 15 13 11 10 10 11 10 9 8 10 8 8 11 13 16 21 20 18 24 22 20 20 23 29 30 25 18 18 19 24 25 22 23 22
2 6 8 11 15 17 17 16 18 17 14 11 11 11 11 8 8 9 8 8 9 10 15 18 16 15 17 17 16 19 22 25 30 22 19 21 24 25 23 20 20 21 22
5 6 10 14 16 19 16 18 19 18 15 12 11 10 10 10 12 11 9 8 9 11 15 15 14 14 15 17 21 21 22 19 11 16 17 32 25 26 24 21 21 24 23
7 11 16 17 19 21 20 19 18 17 15 13 12 10 11 11 11 11 11 11 11 13 16 14 16 16 19 23 23 23 21 19 20 28 21 22 27 27 23 21 22 21 15
13 18 16 18 21 21 17 17 18 16 15 14 13 11 12 12 13 12 12 12 15 18 15 11 12 18 19 21 21 22 24 21 20 23 17 15 24 28 24 27 16 8 9
11 10 18 18 18 17 16 17 18 19 18 16 13 14 15 15 12 13 13 13 17 18 11 8 10 14 16 15 15 18 18 16 18 22 20 15 22 27 26 23 8 11 16
15 15 15 14 18 16 14 16 19 19 20 18 15 15 15 14 13 13 12 15 17 15 10 11 13 15 15 16 16 14 16 15 16 14 8 18 23 17 6 9 8 17 19
Wind_Direction
143 137 144 142 135 130 115 106 91 80 69 56 42 26 19 17 8 7 6 8 358 356 33 142 100 80 63 68 55 44 32 27 19 12 9 11 10 6 1 359 354 349 346
161 165 149 146 140 125 112 93 77 56 54 39 22 13 19 3 1 349 338 328 336 351 145 126 92 74 76 65 61 47 30 21 11 11 10 6 2 2 358 350 347 345 341
171 167 152 136 125 116 99 72 57 37 360 6 4 358 2 12 2 356 11 39 46 103 139 103 52 86 80 42 60 40 16 22 5 22 15 4 354 348 348 344 339 334 334
181 168 152 130 126 115 82 53 43 2 354 350 356 345 359 26 7 33 39 45 63 100 114 66 66 51 25 25 6 356 358 349 334 342 351 346 343 338 337 339 336 331 328
165 155 137 128 130 107 81 51 13 5 9 357 360 0 338 351 48 48 43 44 67 83 73 36 17 8 3 352 347 347 342 340 328 326 327 326 328 327 330 327 330 328 323
147 140 132 134 143 119 61 11 2 5 353 2 336 321 311 301 72 43 30 36 49 54 32 20 17 20 7 357 346 339 329 326 318 318 316 314 312 317 322 326 325 322 321
153 150 153 153 146 66 339 18 19 355 347 354 256 331 269 91 54 13 7 14 1 7 18 19 35 51 39 24 7 349 334 323 309 306 307 307 309 310 313 319 322 317 312
154 164 173 178 163 13 96 8 350 349 295 334 323 333 350 293 270 339 10 309 300 354 341 358 2 358 345 352 354 346 336 323 305 299 298 298 300 303 306 311 314 318 307
175 192 208 215 214 142 128 61 359 326 304 295 241 328 337 248 311 181 315 179 328 312 310 338 345 348 343 336 332 324 325 322 306 297 292 292 294 298 301 303 305 308 310
191 188 178 176 172 168 150 82 18 353 337 302 274 223 248 269 222 314 190 300 272 305 295 310 309 322 335 336 332 321 318 318 307 285 284 291 294 297 299 299 300 300 299
192 194 191 175 174 180 173 337 339 337 348 297 260 284 282 278 289 256 287 255 288 260 292 294 297 304 312 318 313 312 318 311 292 284 288 291 295 297 296 295 295 295 294
189 180 177 181 179 48 350 352 355 348 353 308 292 285 264 267 264 267 250 258 249 288 263 284 297 314 321 315 305 300 307 292 299 301 301 300 298 296 296 294 291 290 289
171 171 177 187 315 12 356 344 337 336 331 304 300 304 298 289 286 281 260 255 267 281 258 261 305 325 325 317 314 318 308 307 307 309 308 303 300 296 291 289 287 285 283
175 170 255 224 252 345 349 341 333 336 334 334 327 323 318 306 291 285 260 272 280 276 255 254 322 327 323 322 315 310 309 306 308 309 307 304 299 292 289 287 284 281 280
170 181 189 269 326 322 344 332 317 305 312 324 325 325 323 315 296 259 256 263 252 301 280 323 329 316 320 309 307 310 306 309 311 307 305 302 298 293 292 289 287 286 282
191 212 297 298 278 277 304 309 299 280 301 311 318 321 319 316 297 304 337 313 281 268 276 291 304 316 316 317 317 310 313 313 313 314 311 305 302 296 298 291 290 287 281
211 287 272 249 248 267 278 293 258 264 273 289 298 288 283 297 317 286 256 229 260 291 276 304 308 318 325 328 325 325 323 323 318 315 313 310 309 302 301 297 296 296 284
285 264 237 232 242 257 279 283 260 254 266 284 286 276 280 274 271 265 260 264 283 305 290 285 314 320 325 328 326 325 325 325 317 313 312 309 307 304 299 296 296 299 296
263 227 237 237 245 264 280 273 250 252 252 263 253 256 277 284 272 261 264 284 292 299 309 307 303 314 321 325 325 323 320 319 316 313 308 298 296 299 299 298 297 293 289
205 229 243 248 269 282 284 265 255 251 242 239 246 261 282 283 270 275 287 278 288 302 304 300 303 303 309 318 315 313 313 315 309 314 315 313 308 304 295 294 291 290 286
93 294 275 281 294 287 285 263 257 246 242 241 257 273 281 273 276 278 261 275 293 303 301 306 299 302 309 313 309 313 306 308 310 317 314 316 309 316 313 308 300 296 294
8 317 295 302 293 284 268 264 249 248 245 252 262 276 268 265 280 287 276 289 299 302 306 305 304 299 304 313 311 307 301 304 310 319 308 317 322 316 316 310 304 310 289
282 308 302 290 299 293 279 256 249 251 243 249 260 265 268 261 271 274 272 281 295 309 311 303 300 308 311 314 316 307 297 290 287 303 306 297 315 313 319 316 317 311 289
284 279 295 307 303 294 273 250 247 243 244 249 258 269 262 262 268 262 271 283 300 313 317 307 300 307 312 312 310 302 299 303 304 308 313 286 304 305 313 312 312 327 299
283 310 310 302 305 302 271 251 247 244 243 246 254 263 267 269 264 264 272 287 305 316 318 314 309 319 317 318 318 319 323 320 313 309 316 293 303 299 298 303 302 313 322
301 310 300 297 301 290 287 271 253 246 254 251 253 264 266 270 272 263 272 295 304 309 311 319 323 327 333 329 328 326 324 309 307 314 324 315 301 297 295 275 273 314 319